Regional Weather Roundup
Issued by NWS Green Bay, WI

Home | Current Version | Previous Version | Text Only | Print | Product List | Glossary On
Versions: 1 2 3 4 5 6 7 8 9 10 11 12 13 14 15 16 17 18 19 20 21 22 23 24 25 26 27 28 29 30 31 32 33 34 35 36 37 38 39 40 41 42 43 44 45 46 47 48 49 50
537
ASUS43 KGRB 032311
RWRGRB

NORTH-CENTRAL AND NORTHEAST WISCONSIN REGIONAL WEATHER ROUNDUP
NATIONAL WEATHER SERVICE GREEN BAY WI
500 PM CST SAT DEC 03 2016

WIZ005-009-010>012-018-019-040000-
NORTH CENTRAL WISCONSIN

CITY           SKY/WX    TMP DP  RH WIND       PRES   REMARKS
IRONWOOD       CLOUDY    29  24  82 VRB6      30.22S
MANITOWISH WTR CLOUDY    27  22  82 S5        30.20S
ARBOR VITAE    CLOUDY    32  26  80 S6        30.20F
EAGLE RIVER    CLOUDY    28  19  69 SW5       30.21S
LAND O LAKES   CLOUDY    29  23  78 CALM      30.21F
RHINELANDER    CLOUDY    28  21  75 CALM      30.22F
PHILLIPS       CLOUDY    28  23  82 S7        30.22R
ANTIGO         CLOUDY    27  21  80 CALM      30.24R
TOMAHAWK       CLOUDY    28  20  74 CALM      30.24R
MERRILL        CLOUDY    28  21  74 CALM      30.25R
$$

WIZ013-073-040000-
NORTHEAST WISCONSIN

CITY           SKY/WX    TMP DP  RH WIND       PRES   REMARKS
IRON MOUNTAIN  CLOUDY    31  27  85 CALM      30.21F
MARINETTE      CLOUDY    33  25  72 SW6       30.27F
OCONTO         CLOUDY    32  23  69 SW3       30.28S
$$

WIZ017-030-035>037-045-040000-
CENTRAL WISCONSIN

CITY           SKY/WX    TMP DP  RH WIND       PRES   REMARKS
MEDFORD        CLOUDY    28  22  79 S6        30.23R
WAUSAU         CLOUDY    29  21  72 CALM      30.24R
MOSINEE        CLOUDY    28  23  80 CALM      30.26
MARSHFIELD     CLOUDY    28  21  75 S5        30.24S
WISC RAPIDS    CLOUDY    30  22  72 CALM      30.28S
STEVENS POINT  CLOUDY    28  20  73 CALM      30.27S
WAUPACA        CLOUDY    32  23  69 CALM      30.28S
SHAWANO        CLOUDY    32  23  68 CALM      30.28S
CLINTONVILLE   CLOUDY    32  25  74 CALM      30.27S
WAUTOMA        CLOUDY    30  21  69 CALM      30.29S
$$

WIZ038-039-048-051-040000-
FOX VALLEY

CITY           SKY/WX    TMP DP  RH WIND       PRES   REMARKS
NWS GREEN BAY  CLOUDY    33  24  69 W5        30.28F
APPLETON       CLOUDY    30  21  69 VRB3      30.26S
OSHKOSH        CLOUDY    30  22  72 S3        30.29S
FOND DU LAC    CLOUDY    31  19  61 SW7       30.29S
$$

WIZ022-050-052-040000-
EAST CENTRAL WISCONSIN

CITY           SKY/WX    TMP DP  RH WIND       PRES   REMARKS
EPHRAIM        CLOUDY    33  29  86 CALM      30.26S
WASHINGTON ISL CLOUDY    34  31  90 W7        30.25F
STURGEON BAY   CLOUDY    31  25  78 S7        30.28S
MANITOWOC      CLOUDY    33  23  66 W5        30.29F
SHEBOYGAN      CLOUDY    31  22  69 SW3       30.29F
$$

LMZ563-521-522-541>543-040000-
LAKESHORE

STATION/POSITION TIME  TEMP    WIND        PRES    VSBY  WAVE
                       AIR SEA DIR/SP/G                  HT/PER
                 (UTC) (F)     (DEG/KT/KT) (MB)    (MI)  (FT/S)
SHEBOYGAN LKSHOR 2300   32     240/  5/  6 1026.6F
KEWAUNEE LKSHORE 2248   32     250/  2/  5 1025.2R
ALGOMA MARINA    2251          240/  8/  9   N/A
NORTHPORT PIER   2240   36      CALM  /  3 1024.7S
SISTER BAY LKSHO 2224   36     210/  8/ 10   N/A
CHAMBERS ISLAND  2240   35      CALM  /  3 1024.4F
MENOMINEE LKSHOR 2248   33     210/  5/  7 1024.3R
$$




USA.gov is the U.S. government's official web portal to all federal, state and local government web resources and services.